Groton, South Dakota, United States (57445)
Lat: 45.45N, Lon: 98.1W
Wx Zone: SDZ006
Local Info
Past Weather Observations for Wednesday, February 10, 2016

NOTE: This archive is for the closest National Weather Service station to Groton. Information may differ from the station used for current weather conditions.

Click here for Long-term Archive

Time Weather Temperature Dewpoint Humidity Pressure Winds Precip Visibility
23:53
Overcast
12°F / -11°C 7°F / -14°C 79% 30.27 in
(1025 mb)
ENE 4.6 mph
(ENE 7 kph)
- 10SM
22:53
Overcast
12°F / -11°C 7°F / -14°C 79% 30.27 in
(1025 mb)
NE 5.8 mph
(NE 9 kph)
- 10SM
22:34
Overcast
14°F / -10°C 7°F / -14°C 73% 30.27 in
(1025 mb)
NNE 9.2 mph
(NNE 15 kph)
- 10SM
22:24
Overcast
14°F / -10°C 9°F / -13°C 79% 30.24 in
(1024 mb)
NE 6.9 mph
(NE 11 kph)
- 10SM
21:53
Overcast
14°F / -10°C 9°F / -13°C 79% 30.24 in
(1024 mb)
NE 8.1 mph
(NE 13 kph)
- 10SM
20:53
Overcast
14°F / -10°C 9°F / -13°C 79% 30.21 in
(1023 mb)
NE 9.2 mph
(NE 15 kph)
- 10SM
19:53
Overcast
14°F / -10°C 9°F / -13°C 79% 30.21 in
(1023 mb)
NE 9.2 mph
(NE 15 kph)
0.00 in
(0.00 mm)
10SM
19:11
Overcast
Light Snow
14°F / -10°C 10°F / -12°C 85% 30.21 in
(1023 mb)
NE 11.5 mph
(NE 19 kph)
0.00 in
(0.00 mm)
3SM
19:00
Overcast
Light Snow
16°F / -9°C 10°F / -12°C 79% 30.21 in
(1023 mb)
NE 9.2 mph
(NE 15 kph)
0.00 in
(0.00 mm)
1 3/4SM
18:53
Overcast
Hazy
16°F / -9°C 10°F / -12°C 79% 30.21 in
(1023 mb)
NNE 9.2 mph
(NNE 15 kph)
0.00 in
(0.00 mm)
5SM
18:08
Overcast
16°F / -9°C 10°F / -12°C 79% 30.18 in
(1022 mb)
ENE 9.2 mph
(ENE 15 kph)
- 7SM
17:53
Overcast
16°F / -9°C 10°F / -12°C 79% 30.15 in
(1021 mb)
ENE 9.2 mph
(ENE 15 kph)
- 9SM
16:53
Overcast
18°F / -8°C 9°F / -13°C 68% 30.12 in
(1020 mb)
NE 10.4 mph
(NE 17 kph)
- 10SM
15:53
Overcast
18°F / -8°C 10°F / -12°C 73% 30.09 in
(1019 mb)
ENE 9.2 mph
(ENE 15 kph)
- 10SM
14:53
Overcast
19°F / -7°C 12°F / -11°C 73% 30.04 in
(1017 mb)
E 9.2 mph
(E 15 kph)
- 10SM
13:53
Overcast
18°F / -8°C 12°F / -11°C 79% 30.01 in
(1016 mb)
ENE 11.5 mph
(ENE 19 kph)
- 10SM
12:53
Overcast
Hazy
19°F / -7°C 12°F / -11°C 73% 30.01 in
(1016 mb)
E 9.2 mph
(E 15 kph)
- 5SM
12:44
Overcast
19°F / -7°C 12°F / -11°C 73% 30.01 in
(1016 mb)
ENE 9.2 mph
(ENE 15 kph)
- 8SM
11:53
Overcast
18°F / -8°C 12°F / -11°C 79% 29.98 in
(1015 mb)
E 8.1 mph
(E 13 kph)
- 10SM
10:53
Overcast
18°F / -8°C 12°F / -11°C 79% 29.98 in
(1015 mb)
E 9.2 mph
(E 15 kph)
- 10SM
10:41
Overcast
18°F / -8°C 12°F / -11°C 79% 29.98 in
(1015 mb)
E 9.2 mph
(E 15 kph)
- 10SM
10:07
Overcast
18°F / -8°C 10°F / -12°C 73% 29.98 in
(1015 mb)
E 10.4 mph
(E 17 kph)
- 9SM
09:53
Overcast
18°F / -8°C 12°F / -11°C 79% 29.98 in
(1015 mb)
E 9.2 mph
(E 15 kph)
- 10SM
08:53
Overcast
18°F / -8°C 12°F / -11°C 79% 29.95 in
(1014 mb)
E 10.4 mph
(E 17 kph)
0.00 in
(0.00 mm)
10SM
07:53
Overcast
Light Snow
18°F / -8°C 12°F / -11°C 79% 29.98 in
(1015 mb)
E 8.1 mph
(E 13 kph)
0.00 in
(0.00 mm)
3SM
06:53
Overcast
Light Snow
18°F / -8°C 12°F / -11°C 79% 29.98 in
(1015 mb)
E 9.2 mph
(E 15 kph)
0.00 in
(0.00 mm)
6SM
05:53
Overcast
Light Snow
18°F / -8°C 12°F / -11°C 79% 29.98 in
(1015 mb)
ESE 11.5 mph
(ESE 19 kph)
0.01 in
(0.25 mm)
6SM
05:17
Overcast
Light Snow
18°F / -8°C 12°F / -11°C 79% 29.98 in
(1015 mb)
E 9.2 mph
(E 15 kph)
0.00 in
(0.00 mm)
3SM
04:53
Overcast
Light Snow
18°F / -8°C 12°F / -11°C 79% 30.01 in
(1016 mb)
E 8.1 mph
(E 13 kph)
0.02 in
(0.51 mm)
2SM
04:50
Overcast
Light Snow
18°F / -8°C 12°F / -11°C 79% 30.01 in
(1016 mb)
E 9.2 mph
(E 15 kph)
0.02 in
(0.51 mm)
1 3/4SM
04:36
Overcast
Light Snow
18°F / -8°C 12°F / -11°C 79% 30.01 in
(1016 mb)
E 10.4 mph
(E 17 kph)
0.01 in
(0.25 mm)
1 1/4SM
04:26
Overcast
Light Snow
18°F / -8°C 12°F / -11°C 79% 30.01 in
(1016 mb)
E 10.4 mph
(E 17 kph)
0.01 in
(0.25 mm)
1 3/4SM
03:53
Overcast
Light Snow
18°F / -8°C 14°F / -10°C 86% 30.01 in
(1016 mb)
E 9.2 mph
(E 15 kph)
0.02 in
(0.51 mm)
3SM
03:46
Overcast
Light Snow
18°F / -8°C 14°F / -10°C 86% 30.01 in
(1016 mb)
E 9.2 mph
(E 15 kph)
0.02 in
(0.51 mm)
2 1/2SM
03:29
Overcast
Light Snow
18°F / -8°C 14°F / -10°C 86% 30.04 in
(1017 mb)
E 9.2 mph
(E 15 kph)
0.02 in
(0.51 mm)
4SM
03:18
Overcast
Light Snow
18°F / -8°C 14°F / -10°C 86% 30.04 in
(1017 mb)
E 9.2 mph
(E 15 kph)
0.02 in
(0.51 mm)
2SM
03:11
Overcast
Light Snow
18°F / -8°C 14°F / -10°C 86% 30.04 in
(1017 mb)
E 8.1 mph
(E 13 kph)
0.01 in
(0.25 mm)
1 3/4SM
02:53
Overcast
Light Snow
19°F / -7°C 14°F / -10°C 79% 30.06 in
(1018 mb)
E 9.2 mph
(E 15 kph)
0.03 in
(0.76 mm)
1 1/4SM
01:53
Overcast
Light Snow
19°F / -7°C 14°F / -10°C 79% 30.06 in
(1018 mb)
E 9.2 mph
(E 15 kph)
0.02 in
(0.51 mm)
1 1/4SM
01:43
Overcast
Light Snow
19°F / -7°C 14°F / -10°C 79% 30.06 in
(1018 mb)
E 8.1 mph
(E 13 kph)
0.01 in
(0.25 mm)
1 1/4SM
01:33
Overcast
Light Snow
19°F / -7°C 12°F / -11°C 73% 30.06 in
(1018 mb)
E 8.1 mph
(E 13 kph)
0.01 in
(0.25 mm)
1 3/4SM
01:24
Overcast
Light Snow
19°F / -7°C 12°F / -11°C 73% 30.06 in
(1018 mb)
E 8.1 mph
(E 13 kph)
0.00 in
(0.00 mm)
3SM
00:53
Overcast
19°F / -7°C 10°F / -12°C 68% 30.09 in
(1019 mb)
E 11.5 mph
(E 19 kph)
- 10SM
Time Weather Temperature Dewpoint Humidity Pressure Winds Precip Visibility


Weather for websites

WeatherForYou.com, LLC is not responsible for any damages or problems caused by this service. Current weather conditions are obtained from the closest station including government and personal stations which may have varying degrees of accuracy. Weather forecasts are derived from the NOAA NDFD. Like all things, this site belongs to Jesus Christ... He just trusts us to maintain it. If you have any questions or comments email webmaster@weatherforyou.com

Copyright © 2016, WeatherForYou.com LLC. All rights reserved.